KF4URA Weather Reports


Display with metric or nautical units.
time (UTC)temp
F
wind
direction
speed
MPH
gust
MPH
rain 1hr
in
rain 24hr
in
rain mn
in
humidity
%
barometer
mb
20260904054909 76 80 0.0 0.0 0.00 0.00 0.00 86 1013.2
20260904053855 76 80 0.0 0.0 0.00 0.00 0.00 85 1013.3
20260904052828 76 80 0.0 1.0 0.00 0.00 0.00 86 1013.2
20260904051821 75 79 0.0 0.0 0.00 0.00 0.00 86 1013.3
20260904050831 75 79 0.0 0.0 0.00 0.00 0.00 86 1013.4
20260904043510 75 79 0.0 0.0 0.00 0.00 0.00 87 1013.4
20260904042450 75 79 0.0 0.0 0.00 0.00 0.00 87 1013.4
20260904041447 75 79 0.0 0.0 0.00 0.00 0.00 87 1013.4
20260904035339 75 79 0.0 0.0 0.00 0.00 0.00 86 1013.3
20260904034355 75 79 0.0 0.0 0.00 0.00 0.00 85 1013.3
20260904033335 76 79 0.0 0.0 0.00 0.00 0.00 85 1013.3
20260904032314 76 79 0.0 0.0 0.00 0.00 0.00 85 1013.4
20260904031311 76 79 0.0 0.0 0.00 0.00 0.00 84 1013.4
20260904030308 76 79 0.0 0.0 0.00 0.00 0.00 83 1013.5
20260904025305 77 79 0.0 0.0 0.00 0.00 0.00 82 1013.6
20260904024323 77 79 0.0 0.0 0.00 0.00 0.00 82 1013.6
20260904023320 77 79 0.0 0.0 0.00 0.00 0.00 81 1013.7
20260904022319 78 79 0.0 0.0 0.00 0.00 0.00 80 1013.7
20260904021254 78 79 0.0 0.0 0.00 0.00 0.00 79 1013.6
20260904020310 78 79 0.0 0.0 0.00 0.00 0.00 78 1013.5
20260904015259 79 79 0.0 0.0 0.00 0.00 0.00 78 1013.5
20260904014233 79 79 0.0 0.0 0.00 0.00 0.00 77 1013.3
20260904012112 80 79 0.0 0.0 0.00 0.00 0.00 75 1013.1
20260904011137 80 79 0.0 0.0 0.00 0.00 0.00 74 1013.0
20260904010120 81 329 0.0 3.0 0.00 0.00 0.00 72 1013.3
20260904005114 83 329 0.0 4.0 0.00 0.00 0.00 71 1013.2
20260904004041 84 327 0.0 2.0 0.00 0.00 0.00 71 1013.2
20260904003020 85 237 0.0 0.0 0.00 0.00 0.00 71 1012.8
20260904002018 85 236 0.0 4.0 0.00 0.00 0.00 71 1012.6
20260904000945 86 226 0.0 0.0 0.00 0.00 0.00 70 1012.4
20260903235957 87 226 0.0 0.0 0.00 0.00 0.00 67 1012.5
20260903234959 88 226 0.0 0.0 0.00 0.00 0.00 64 1012.6
20260903233944 89 226 0.0 0.0 0.00 0.00 0.00 63 1012.6
20260903230654 90 256 1.0 2.0 0.00 0.00 0.00 59 1012.0
20260903225706 90 284 0.0 2.0 0.00 0.00 0.00 58 1012.1
20260903224700 91 284 0.0 0.0 0.00 0.00 0.00 58 1012.2
20260903222540 91 266 0.0 5.0 0.00 0.00 0.00 56 1012.2
20260903221552 91 184 0.0 1.0 0.00 0.00 0.00 57 1012.2
20260903220534 91 173 0.0 4.0 0.00 0.00 0.00 56 1012.0
20260903215459 92 265 0.0 4.0 0.00 0.00 0.00 57 1011.8
20260903214426 92 279 0.0 4.0 0.00 0.00 0.00 56 1011.9
20260903213439 92 246 1.0 6.0 0.00 0.00 0.00 55 1011.8
20260903212440 92 297 1.0 7.0 0.00 0.00 0.00 55 1011.4
20260903211414 92 252 0.0 8.0 0.00 0.00 0.00 57 1011.2
20260903210421 92 240 1.0 8.0 0.00 0.00 0.00 57 1011.3
20260903205357 92 238 1.0 5.0 0.00 0.00 0.00 57 1011.1
20260903204349 92 219 1.0 5.0 0.00 0.00 0.00 56 1010.9
20260903203357 92 198 0.0 3.0 0.00 0.00 0.00 55 1011.0
20260903201234 92 193 1.0 5.0 0.00 0.00 0.00 56 1011.3
20260903200257 92 254 1.0 5.0 0.00 0.00 0.00 56 1011.6
20260903195238 93 294 0.0 4.0 0.00 0.00 0.00 54 1011.8
20260903194241 93 218 1.0 5.0 0.00 0.00 0.00 55 1012.1
20260903193236 93 266 1.0 5.0 0.00 0.00 0.00 52 1012.4
20260903192220 93 268 1.0 4.0 0.00 0.00 0.00 54 1012.6
20260903191223 93 228 1.0 7.0 0.00 0.00 0.00 55 1012.7
20260903190156 93 270 1.0 7.0 0.00 0.00 0.00 55 1012.8
20260903185123 93 184 1.0 5.0 0.00 0.00 0.00 53 1012.8
20260903183001 94 290 1.0 3.0 0.00 0.00 0.00 55 1012.7
20260903182020 94 219 0.0 3.0 0.00 0.00 0.00 55 1013.0
20260903181033 93 216 0.0 2.0 0.00 0.00 0.00 55 1013.2
20260903180033 93 290 1.0 6.0 0.00 0.00 0.00 55 1013.2
20260903173857 92 298 0.0 5.0 0.00 0.00 0.00 59 1013.6
20260903172910 92 298 1.0 5.0 0.00 0.00 0.00 58 1013.6
20260903171859 92 217 1.0 3.0 0.00 0.00 0.00 60 1013.6
20260903170922 92 271 0.0 5.0 0.00 0.00 0.00 60 1013.7
20260903164729 91 288 0.0 5.0 0.00 0.00 0.00 60 1013.9
20260903163708 91 294 1.0 5.0 0.00 0.00 0.00 62 1014.0
20260903162637 91 278 0.0 3.0 0.00 0.00 0.00 61 1014.0
20260903155441 90 171 0.0 1.0 0.00 0.00 0.00 65 1014.3
20260903154500 89 173 0.0 4.0 0.00 0.00 0.00 65 1014.2
20260903152323 88 223 0.0 2.0 0.00 0.00 0.00 68 1014.2
20260903151248 88 173 0.0 1.0 0.00 0.00 0.00 68 1014.2
20260903150246 87 171 0.0 1.0 0.00 0.00 0.00 70 1014.1
20260903144119 85 199 0.0 3.0 0.00 0.00 0.00 73 1014.3
20260903143125 85 213 0.0 2.0 0.00 0.00 0.00 75 1014.2
20260903142055 84 174 0.0 1.0 0.00 0.00 0.00 75 1014.3
20260903141029 83 174 0.0 3.0 0.00 0.00 0.00 76 1014.2
20260903134851 82 183 0.0 2.0 0.00 0.00 0.00 80 1014.3
20260903133827 81 224 0.0 0.0 0.00 0.00 0.00 81 1014.3
20260903131742 79 214 0.0 1.0 0.00 0.00 0.00 84 1014.5
20260903130716 78 214 0.0 1.0 0.00 0.00 0.00 86 1014.5
20260903125740 77 214 0.0 0.0 0.00 0.00 0.00 87 1014.6
20260903124755 76 214 0.0 0.0 0.00 0.00 0.00 88 1014.7
20260903123801 76 214 0.0 0.0 0.00 0.00 0.00 89 1014.7
20260903122737 76 214 0.0 0.0 0.00 0.00 0.00 89 1014.7
20260903120604 75 214 0.0 0.0 0.00 0.00 0.00 90 1014.7
20260903115546 75 214 0.0 0.0 0.00 0.00 0.00 90 1014.6
20260903114539 75 214 0.0 0.0 0.00 0.00 0.00 90 1014.5
20260903112443 75 214 0.0 0.0 0.00 0.00 0.00 89 1014.4
20260903111445 75 214 0.0 0.0 0.00 0.00 0.00 89 1014.4
20260903110504 75 214 0.0 0.0 0.00 0.00 0.00 89 1014.2
20260903105508 75 214 0.0 0.0 0.00 0.00 0.00 89 1014.0
20260903104512 75 214 0.0 0.0 0.00 0.00 0.00 90 1014.0
20260903101147 75 214 0.0 0.0 0.00 0.00 0.00 89 1013.8
20260903100118 75 214 0.0 0.0 0.00 0.00 0.00 88 1013.7
20260903095133 76 214 0.0 0.0 0.00 0.00 0.00 88 1013.7
20260903094128 76 214 0.0 0.0 0.00 0.00 0.00 88 1013.6
20260903093057 76 214 0.0 0.0 0.00 0.00 0.00 87 1013.6
20260903092046 76 214 0.0 0.0 0.00 0.00 0.00 87 1013.6
20260903083526 76 214 0.0 0.0 0.00 0.00 0.00 88 1013.6
20260903082530 76 214 0.0 0.0 0.00 0.00 0.00 89 1013.6
20260903081552 76 214 0.0 0.0 0.00 0.00 0.00 89 1013.6
20260903080524 76 214 0.0 0.0 0.00 0.00 0.00 90 1013.6
20260903075509 75 214 0.0 0.0 0.00 0.00 0.00 90 1013.5
20260903073423 75 214 0.0 0.0 0.00 0.00 0.00 90 1013.6
20260903072431 75 214 0.0 0.0 0.00 0.00 0.00 90 1013.6
20260903065224 76 214 0.0 0.0 0.00 0.00 0.00 89 1013.8
20260903064244 76 214 0.0 0.0 0.00 0.00 0.00 88 1013.7
20260903063232 76 214 0.0 0.0 0.00 0.00 0.00 88 1013.8
20260903062215 77 214 0.0 0.0 0.00 0.00 0.00 87 1013.8
20260903061230 77 214 0.0 0.0 0.00 0.00 0.00 86 1013.9